Time,TemperatureF,DewpointF,PressureIn,WindDirection,WindDirectionDegrees,WindSpeedMPH,WindSpeedGustMPH,Humidity,HourlyPrecipIn,Conditions,Clouds,dailyrainin,SoftwareType,DateUTC
2013-03-27 00:13:00,32.8,27.0,30.32,NW,323,0.0,0.0,78,0.00,,,0.00,weatherlink.com 1.10,2013-03-27 04:13:00,
2013-03-27 00:43:00,32.1,27.0,30.32,NW,323,0.0,0.0,82,0.00,,,0.00,weatherlink.com 1.10,2013-03-27 04:43:00,
2013-03-27 00:58:00,31.9,27.0,30.31,NW,323,0.0,0.0,81,0.00,,,0.00,weatherlink.com 1.10,2013-03-27 04:58:00,
2013-03-27 01:13:00,31.6,27.0,30.31,NW,323,0.0,0.0,82,0.00,,,0.00,weatherlink.com 1.10,2013-03-27 05:13:00,
2013-03-27 01:28:00,31.1,27.0,30.31,NW,323,0.0,0.0,83,0.00,,,0.00,weatherlink.com 1.10,2013-03-27 05:28:00,
2013-03-27 01:58:00,30.7,26.0,30.31,NW,323,0.0,0.0,84,0.00,,,0.00,weatherlink.com 1.10,2013-03-27 05:58:00,
2013-03-27 02:13:00,30.0,26.0,30.30,NW,323,0.0,0.0,85,0.00,,,0.00,weatherlink.com 1.10,2013-03-27 06:13:00,
2013-03-27 02:28:00,29.3,26.0,30.30,NW,323,0.0,0.0,86,0.00,,,0.00,weatherlink.com 1.10,2013-03-27 06:28:00,
2013-03-27 02:43:00,28.7,26.0,30.31,NW,323,0.0,0.0,88,0.00,,,0.00,weatherlink.com 1.10,2013-03-27 06:43:00,
2013-03-27 03:13:00,29.2,26.0,30.29,NW,323,0.0,0.0,89,0.00,,,0.00,weatherlink.com 1.10,2013-03-27 07:13:00,
2013-03-27 03:28:00,29.7,27.0,30.29,NW,323,0.0,0.0,89,0.00,,,0.00,weatherlink.com 1.10,2013-03-27 07:28:00,
2013-03-27 03:43:00,30.1,27.0,30.29,NW,323,0.0,0.0,89,0.00,,,0.00,weatherlink.com 1.10,2013-03-27 07:43:00,
2013-03-27 03:59:00,30.1,27.0,30.29,NW,323,0.0,0.0,89,0.00,,,0.00,weatherlink.com 1.10,2013-03-27 07:59:00,
2013-03-27 04:29:00,28.9,26.0,30.29,NW,323,0.0,0.0,89,0.00,,,0.00,weatherlink.com 1.10,2013-03-27 08:29:00,
2013-03-27 04:44:00,28.2,25.0,30.29,NW,323,0.0,0.0,89,0.00,,,0.00,weatherlink.com 1.10,2013-03-27 08:44:00,
2013-03-27 04:59:00,27.9,25.0,30.29,NW,323,0.0,0.0,90,0.00,,,0.00,weatherlink.com 1.10,2013-03-27 08:59:00,
2013-03-27 05:14:00,27.5,25.0,30.30,NW,323,0.0,0.0,90,0.00,,,0.00,weatherlink.com 1.10,2013-03-27 09:14:00,
2013-03-27 05:29:00,27.1,25.0,30.30,NW,323,0.0,0.0,91,0.00,,,0.00,weatherlink.com 1.10,2013-03-27 09:29:00,
2013-03-27 05:44:00,26.7,25.0,30.30,NW,323,0.0,0.0,91,0.00,,,0.00,weatherlink.com 1.10,2013-03-27 09:44:00,
2013-03-27 05:59:00,26.3,24.0,30.30,NW,323,0.0,0.0,91,0.00,,,0.00,weatherlink.com 1.10,2013-03-27 09:59:00,
2013-03-27 06:14:00,25.9,24.0,30.31,NW,323,0.0,0.0,91,0.00,,,0.00,weatherlink.com 1.10,2013-03-27 10:14:00,
2013-03-27 06:29:00,25.6,23.0,30.31,NW,323,0.0,0.0,91,0.00,,,0.00,weatherlink.com 1.10,2013-03-27 10:29:00,
2013-03-27 06:59:00,24.9,23.0,30.32,NW,323,0.0,0.0,91,0.00,,,0.00,weatherlink.com 1.10,2013-03-27 10:59:00,
2013-03-27 07:14:00,24.7,23.0,30.32,NW,323,0.0,0.0,92,0.00,,,0.00,weatherlink.com 1.10,2013-03-27 11:14:00,
2013-03-27 07:30:00,24.7,23.0,30.33,NW,323,0.0,0.0,92,0.00,,,0.00,weatherlink.com 1.10,2013-03-27 11:30:00,
2013-03-27 07:59:00,24.4,22.0,30.34,NW,323,0.0,0.0,92,0.00,,,0.00,weatherlink.com 1.10,2013-03-27 11:59:00,
2013-03-27 08:14:00,24.6,23.0,30.35,NW,323,0.0,0.0,92,0.00,,,0.00,weatherlink.com 1.10,2013-03-27 12:14:00,
2013-03-27 08:44:00,26.7,25.0,30.36,NW,323,0.0,0.0,93,0.00,,,0.00,weatherlink.com 1.10,2013-03-27 12:44:00,
2013-03-27 08:59:00,29.8,28.0,30.35,NW,323,0.0,0.0,94,0.00,,,0.00,weatherlink.com 1.10,2013-03-27 12:59:00,
2013-03-27 09:14:00,34.4,31.0,30.36,NW,323,0.0,0.0,86,0.00,,,0.00,weatherlink.com 1.10,2013-03-27 13:14:00,
2013-03-27 09:29:00,38.4,30.0,30.36,NW,323,0.0,1.0,72,0.00,,,0.00,weatherlink.com 1.10,2013-03-27 13:29:00,
2013-03-27 09:44:00,40.3,28.0,30.36,ESE,117,0.0,3.0,63,0.01,,,0.01,weatherlink.com 1.10,2013-03-27 13:44:00,
2013-03-27 10:00:00,41.3,28.0,30.36,NW,309,3.0,3.0,59,0.02,,,0.02,weatherlink.com 1.10,2013-03-27 14:00:00,
2013-03-27 10:14:00,42.4,28.0,30.36,NW,323,0.0,4.0,58,0.03,,,0.03,weatherlink.com 1.10,2013-03-27 14:14:00,
2013-03-27 10:29:00,42.4,28.0,30.36,NNW,327,0.0,5.0,57,0.03,,,0.04,weatherlink.com 1.10,2013-03-27 14:29:00,
2013-03-27 10:44:00,44.1,29.0,30.36,NW,323,2.0,8.0,56,0.05,,,0.06,weatherlink.com 1.10,2013-03-27 14:44:00,
2013-03-27 10:59:00,44.6,28.0,30.36,West,265,0.0,6.0,52,0.06,,,0.08,weatherlink.com 1.10,2013-03-27 14:59:00,
2013-03-27 11:14:00,44.7,29.0,30.36,NNW,330,8.0,9.0,55,0.07,,,0.10,weatherlink.com 1.10,2013-03-27 15:14:00,
2013-03-27 11:29:00,44.6,28.0,30.36,WNW,295,0.0,6.0,53,0.07,,,0.11,weatherlink.com 1.10,2013-03-27 15:29:00,
2013-03-27 11:44:00,45.4,29.0,30.36,NNW,340,0.0,6.0,54,0.06,,,0.12,weatherlink.com 1.10,2013-03-27 15:44:00,
2013-03-27 11:59:00,46.8,30.0,30.36,SE,146,0.0,7.0,53,0.04,,,0.12,weatherlink.com 1.10,2013-03-27 15:59:00,
2013-03-27 12:15:00,47.0,29.0,30.35,NW,315,1.0,8.0,49,0.02,,,0.12,weatherlink.com 1.10,2013-03-27 16:15:00,
2013-03-27 12:30:00,47.2,29.0,30.35,NW,321,0.0,4.0,49,0.01,,,0.12,weatherlink.com 1.10,2013-03-27 16:30:00,
2013-03-27 12:45:00,48.6,30.0,30.34,South,170,0.0,6.0,49,0.00,,,0.12,weatherlink.com 1.10,2013-03-27 16:45:00,
2013-03-27 13:15:00,48.7,29.0,30.34,West,263,1.0,8.0,46,0.00,,,0.12,weatherlink.com 1.10,2013-03-27 17:15:00,
2013-03-27 13:30:00,48.8,28.0,30.34,WSW,255,1.0,13.0,44,0.00,,,0.12,weatherlink.com 1.10,2013-03-27 17:30:00,
2013-03-27 13:45:00,49.6,29.0,30.33,NW,315,1.0,5.0,45,0.00,,,0.12,weatherlink.com 1.10,2013-03-27 17:45:00,
2013-03-27 14:00:00,49.9,27.0,30.32,NW,326,2.0,10.0,42,0.00,,,0.12,weatherlink.com 1.10,2013-03-27 18:00:00,
2013-03-27 14:15:00,51.1,33.0,30.31,West,276,1.0,4.0,50,0.00,,,0.12,weatherlink.com 1.10,2013-03-27 18:15:00,
2013-03-27 14:30:00,51.7,31.0,30.31,WNW,295,1.0,5.0,45,0.00,,,0.12,weatherlink.com 1.10,2013-03-27 18:30:00,
2013-03-27 15:00:00,51.8,29.0,30.30,ESE,117,2.0,5.0,42,0.00,,,0.12,weatherlink.com 1.10,2013-03-27 19:00:00,
2013-03-27 15:30:00,51.8,29.0,30.28,SE,137,0.0,7.0,42,0.00,,,0.12,weatherlink.com 1.10,2013-03-27 19:30:00,
2013-03-27 15:45:00,52.2,30.0,30.28,NNW,343,0.0,5.0,42,0.00,,,0.12,weatherlink.com 1.10,2013-03-27 19:45:00,
2013-03-27 16:00:00,52.6,28.0,30.27,WNW,302,4.0,7.0,39,0.00,,,0.12,weatherlink.com 1.10,2013-03-27 20:00:00,
2013-03-27 16:15:00,52.7,29.0,30.27,WNW,283,2.0,5.0,40,0.00,,,0.12,weatherlink.com 1.10,2013-03-27 20:15:00,
2013-03-27 16:30:00,53.3,29.0,30.26,NW,319,1.0,6.0,40,0.00,,,0.12,weatherlink.com 1.10,2013-03-27 20:30:00,
2013-03-27 16:45:00,53.4,29.0,30.26,SSE,163,2.0,6.0,40,0.00,,,0.12,weatherlink.com 1.10,2013-03-27 20:45:00,
2013-03-27 17:00:00,54.0,30.0,30.26,NW,320,0.0,6.0,40,0.00,,,0.12,weatherlink.com 1.10,2013-03-27 21:00:00,
2013-03-27 17:15:00,54.4,30.0,30.26,West,267,0.0,3.0,40,0.00,,,0.12,weatherlink.com 1.10,2013-03-27 21:15:00,
2013-03-27 17:30:00,53.6,28.0,30.25,NW,309,0.0,5.0,37,0.00,,,0.12,weatherlink.com 1.10,2013-03-27 21:30:00,
2013-03-27 17:45:00,53.9,30.0,30.26,WSW,254,1.0,4.0,40,0.00,,,0.12,weatherlink.com 1.10,2013-03-27 21:45:00,
2013-03-27 18:00:00,53.7,30.0,30.26,NNW,327,0.0,4.0,40,0.00,,,0.12,weatherlink.com 1.10,2013-03-27 22:00:00,
2013-03-27 18:30:00,53.3,29.0,30.25,ESE,115,1.0,5.0,40,0.00,,,0.12,weatherlink.com 1.10,2013-03-27 22:30:00,
2013-03-27 18:45:00,52.7,28.0,30.25,West,262,0.0,6.0,39,0.00,,,0.12,weatherlink.com 1.10,2013-03-27 22:45:00,
2013-03-27 19:00:00,51.8,27.0,30.25,NW,306,0.0,6.0,39,0.00,,,0.12,weatherlink.com 1.10,2013-03-27 23:00:00,
2013-03-27 19:15:00,51.1,27.0,30.25,West,278,1.0,2.0,40,0.00,,,0.12,weatherlink.com 1.10,2013-03-27 23:15:00,
2013-03-27 19:30:00,49.7,27.0,30.26,NW,309,1.0,7.0,41,0.00,,,0.12,weatherlink.com 1.10,2013-03-27 23:30:00,
2013-03-27 19:45:00,48.5,27.0,30.26,WNW,290,0.0,1.0,44,0.00,,,0.12,weatherlink.com 1.10,2013-03-27 23:45:00,
2013-03-27 20:00:00,47.7,27.0,30.27,West,281,0.0,2.0,44,0.00,,,0.12,weatherlink.com 1.10,2013-03-28 00:00:00,
2013-03-27 20:15:00,46.7,27.0,30.27,West,281,0.0,1.0,47,0.00,,,0.12,weatherlink.com 1.10,2013-03-28 00:15:00,
2013-03-27 20:30:00,45.3,28.0,30.27,West,281,0.0,1.0,51,0.00,,,0.12,weatherlink.com 1.10,2013-03-28 00:30:00,
2013-03-27 20:45:00,43.7,28.0,30.28,West,281,0.0,0.0,55,0.00,,,0.12,weatherlink.com 1.10,2013-03-28 00:45:00,
2013-03-27 21:00:00,42.2,28.0,30.28,West,281,0.0,0.0,58,0.00,,,0.12,weatherlink.com 1.10,2013-03-28 01:00:00,
2013-03-27 21:15:00,40.9,29.0,30.28,West,281,0.0,0.0,62,0.00,,,0.12,weatherlink.com 1.10,2013-03-28 01:15:00,
2013-03-27 21:30:00,39.6,29.0,30.28,West,281,1.0,1.0,66,0.00,,,0.12,weatherlink.com 1.10,2013-03-28 01:30:00,
2013-03-27 21:45:00,38.4,29.0,30.28,West,281,0.0,0.0,69,0.00,,,0.12,weatherlink.com 1.10,2013-03-28 01:45:00,
2013-03-27 22:15:00,36.2,29.0,30.29,West,281,0.0,0.0,74,0.00,,,0.12,weatherlink.com 1.10,2013-03-28 02:15:00,
2013-03-27 22:30:00,35.5,28.0,30.29,West,281,0.0,0.0,75,0.00,,,0.12,weatherlink.com 1.10,2013-03-28 02:30:00,
2013-03-27 22:45:00,35.1,29.0,30.30,West,281,0.0,0.0,77,0.00,,,0.12,weatherlink.com 1.10,2013-03-28 02:45:00,
2013-03-27 23:00:00,34.4,29.0,30.29,West,281,0.0,0.0,79,0.00,,,0.12,weatherlink.com 1.10,2013-03-28 03:00:00,
2013-03-27 23:15:00,34.0,28.0,30.29,West,281,0.0,0.0,79,0.00,,,0.12,weatherlink.com 1.10,2013-03-28 03:15:00,
2013-03-27 23:30:00,33.7,28.0,30.29,West,281,0.0,0.0,81,0.00,,,0.12,weatherlink.com 1.10,2013-03-28 03:30:00,
2013-03-27 23:45:00,33.4,29.0,30.29,West,281,0.0,0.0,83,0.00,,,0.12,weatherlink.com 1.10,2013-03-28 03:45:00,